Stations météo

réclame
Mon MeteoGroup
Shoeburyness Landwick, Grande-Bretagne (3693): Température de l'air & dewpoint: 05.12.2017 06:00:00 - 11.12.2017 06:00:00 (GMT)Shoeburyness Landwick, Grande-Bretagne (3693): Température de l'air -20cm & Température de l'air -100cm: 05.12.2017 06:00:00 - 11.12.2017 06:00:00 (GMT)Shoeburyness Landwick, Grande-Bretagne (3693): Vitesse du vent & gusts: 05.12.2017 06:00:00 - 11.12.2017 06:00:00 (GMT)Shoeburyness Landwick, Grande-Bretagne (3693): Direction du vent: 05.12.2017 06:00:00 - 11.12.2017 06:00:00 (GMT)Shoeburyness Landwick, Grande-Bretagne (3693): reduced air pressure: 05.12.2017 06:00:00 - 11.12.2017 06:00:00 (GMT)Shoeburyness Landwick, Grande-Bretagne (3693): visibility: 05.12.2017 06:00:00 - 11.12.2017 06:00:00 (GMT)Shoeburyness Landwick, Grande-Bretagne (3693): Ensoleillement: 05.12.2017 06:00:00 - 11.12.2017 06:00:00 (GMT)Shoeburyness Landwick, Grande-Bretagne (3693): Quantités de précipitations: 05.12.2017 06:00:00 - 11.12.2017 06:00:00 (GMT)
Date & Time tt [°C] td [°C] tt -20cm [°C] tt -100cm [°C] ff [km/h] ff [knt] fx [km/h] fx [knt] dd ppp [hPa] vv [km] sd [min] rr [mm]
11.12.2017 06:00:00 - - - - - - - - - - - - -
11.12.2017 05:00:00 2,6 2,5 - - 26 14 - - NE 978,5 9 0 0,0
11.12.2017 04:00:00 2,0 2,0 - - 18 10 - - NNE 979,8 5 0 0,0
11.12.2017 03:00:00 1,3 1,3 - - 13 7 - - NNE 981,5 0,6 0 0,0
11.12.2017 02:00:00 1,1 1,1 - - 9 5 - - NNE 982,0 0,4 0 0,0
11.12.2017 01:00:00 0,8 0,8 - - 9 5 - - N 981,7 0,2 0 0,0
11.12.2017 00:00:00 0,5 0,4 - - 8 4 - - NE 982,1 0,1 - 0,0
10.12.2017 23:00:00 0,9 0,7 - - 4 2 - - NW 981,3 2,6 0 0,0
10.12.2017 22:00:00 1,0 0,8 - - 2 1 - - N 981,1 3,8 0 0,0
10.12.2017 21:00:00 1,2 1,0 - - 5 3 - - W 981,3 5 0 0,0
10.12.2017 20:00:00 1,0 0,7 - - 8 4 - - WNW 980,2 5 0 0,0
10.12.2017 19:00:00 1,1 0,8 - - 9 5 - - WNW 979,6 10 0 0,0
10.12.2017 18:00:00 1,0 0,8 - - 13 7 - - WNW 978,7 13 0 0,0
10.12.2017 17:00:00 1,0 0,7 - - 18 10 - - NW 977,5 15 0 0,4
10.12.2017 16:00:00 0,8 0,8 - - 22 12 - - NW 976,2 8 0 0,6
10.12.2017 15:00:00 0,4 0,4 - - 22 12 - - NW 974,5 2,9 0 0,4
10.12.2017 14:00:00 0,7 0,6 - - 16 9 - - NW 972,7 3,7 0 0,4
10.12.2017 13:00:00 1,1 1,0 - - 13 7 - - N 971,2 10 0 0,8
10.12.2017 12:00:00 1,5 1,3 - - 16 9 - - NNW 971,7 7 0 1,0
10.12.2017 11:00:00 1,9 1,5 - - 13 7 - - N 971,8 3,7 0 2,4
10.12.2017 10:00:00 1,5 1,2 - - 31 17 46 25 E 972,3 3,8 0 2,8
10.12.2017 09:00:00 0,9 0,6 5,7 9,5 35 19 54 29 ESE 975,8 2,0 0 2,8
10.12.2017 08:00:00 1,4 1,1 - - 35 19 48 26 SE 979,8 4,2 0 3,6
10.12.2017 07:00:00 3,0 2,1 - - 37 20 52 28 SE 983,5 3,9 0 1,8
10.12.2017 06:00:00 4,3 3,7 - - 28 15 - - SE 987,1 7 0 1,4
10.12.2017 05:00:00 3,6 2,9 - - 31 17 - - ESE 990,6 8 0 0,4
10.12.2017 04:00:00 3,7 0,9 - - 24 13 - - SE 994,0 9 0 0,0
10.12.2017 03:00:00 3,6 -2,0 - - 18 10 - - SSE 997,0 50 0 0,0
10.12.2017 02:00:00 3,1 -0,4 - - 13 7 - - S 999,8 35 0 0,0
10.12.2017 01:00:00 1,9 -0,2 - - 11 6 - - S 1001,8 29 0 0,0
10.12.2017 00:00:00 1,4 -1,0 - - 11 6 - - SW 1003,9 26 - 0,0
09.12.2017 23:00:00 2,0 -1,7 - - 11 6 - - SW 1005,7 30 0 0,0
09.12.2017 22:00:00 2,4 -0,9 - - 11 6 - - SW 1006,9 22 0 0,0
09.12.2017 21:00:00 2,2 -1,0 - - 9 5 - - W 1008,3 28 0 0,0
09.12.2017 20:00:00 2,1 -0,8 - - 13 7 - - W 1009,5 20 0 0,0
09.12.2017 19:00:00 2,2 -0,8 - - 15 8 - - WSW 1010,4 30 0 0,0
09.12.2017 18:00:00 2,2 -1,0 - - 15 8 - - WSW 1011,2 26 0 0,0
09.12.2017 17:00:00 2,3 -1,1 - - 13 7 - - WSW 1012,0 30 0 0,0
09.12.2017 16:00:00 2,5 -1,1 - - 9 5 - - WSW 1012,4 30 0 0,0
09.12.2017 15:00:00 3,4 -1,8 - - 16 9 - - W 1013,1 27 12 0,0
09.12.2017 14:00:00 4,4 -1,7 - - 18 10 - - W 1013,7 29 60 0,0
09.12.2017 13:00:00 4,3 -1,0 - - 21 11 - - W 1014,9 27 60 0,0
09.12.2017 12:00:00 2,8 -1,0 - - 18 10 - - W 1015,8 23 42 0,0
09.12.2017 11:00:00 2,1 -1,3 - - 16 9 - - W 1016,6 35 60 0,0
09.12.2017 10:00:00 1,4 -2,0 - - 18 10 - - W 1017,0 40 60 0,0
09.12.2017 09:00:00 0,2 -2,3 6,2 9,7 21 11 - - W 1017,2 45 24 0,0
09.12.2017 08:00:00 -0,4 -2,7 - - 15 8 - - W 1017,2 45 0 0,0
09.12.2017 07:00:00 -0,2 -2,4 - - 21 11 - - W 1017,1 50 0 0,0
09.12.2017 06:00:00 -0,3 -2,2 - - 18 10 - - W 1016,9 45 0 0,0
09.12.2017 05:00:00 -0,2 -2,2 - - 21 11 - - W 1017,1 45 0 0,0
09.12.2017 04:00:00 -0,3 -2,2 - - 21 11 - - WNW 1017,0 50 0 0,0
09.12.2017 03:00:00 0,0 -2,2 - - 24 13 - - WNW 1017,2 50 0 0,0
09.12.2017 02:00:00 0,3 -2,1 - - 24 13 - - W 1017,2 50 0 0,0
09.12.2017 01:00:00 0,1 -2,0 - - 21 11 - - W 1017,1 45 0 0,0
09.12.2017 00:00:00 0,2 -2,0 - - 22 12 - - WNW 1017,5 45 - 0,0
08.12.2017 23:00:00 0,1 -2,0 - - 21 11 - - W 1017,2 50 0 0,0
08.12.2017 22:00:00 0,3 -1,9 - - 21 11 - - WNW 1017,4 45 0 0,0
08.12.2017 21:00:00 0,6 -2,0 - - 18 10 - - W 1017,1 50 0 0,0
08.12.2017 20:00:00 0,8 -2,2 - - 22 12 - - W 1016,8 50 0 0,0
08.12.2017 19:00:00 1,1 -2,3 - - 24 13 - - WNW 1016,6 50 0 0,0
08.12.2017 18:00:00 1,5 -2,1 - - 28 15 - - WNW 1016,2 50 0 0,0
08.12.2017 17:00:00 2,0 -2,1 - - 24 13 - - WNW 1015,8 50 0 0,0
08.12.2017 16:00:00 2,5 -2,2 - - 26 14 - - WNW 1015,2 50 24 0,0
08.12.2017 15:00:00 3,5 -2,0 - - 29 16 52 28 WNW 1015,3 45 42 0,0
08.12.2017 14:00:00 4,1 -2,3 - - 35 19 50 27 WNW 1014,8 50 60 0,0
08.12.2017 13:00:00 4,2 -1,3 - - 31 17 54 29 WNW 1014,6 50 60 0,0
08.12.2017 12:00:00 4,2 -0,9 - - 34 18 52 28 WNW 1014,3 45 60 0,0
08.12.2017 11:00:00 3,8 -0,4 - - 29 16 48 26 WNW 1014,2 45 24 0,0
08.12.2017 10:00:00 4,0 -1,1 - - 35 19 52 28 WNW 1013,4 40 48 0,0
08.12.2017 09:00:00 2,7 -0,6 7,5 9,7 28 15 - - WNW 1013,0 35 0 0,0
08.12.2017 08:00:00 2,7 -0,3 - - 24 13 - - WNW 1012,2 50 0 0,0
08.12.2017 07:00:00 2,9 -0,6 - - 26 14 50 27 WNW 1011,5 40 0 0,0
08.12.2017 06:00:00 3,7 -0,9 - - 34 18 52 28 W 1010,6 40 0 0,0
08.12.2017 05:00:00 3,1 -0,9 - - 21 11 - - W 1010,3 30 0 0,0
08.12.2017 04:00:00 3,3 -0,5 - - 21 11 - - W 1010,6 30 0 0,0
08.12.2017 03:00:00 3,4 0,0 - - 18 10 - - W 1011,0 26 0 0,0
08.12.2017 02:00:00 3,8 0,2 - - 22 12 - - W 1011,3 35 0 0,0
08.12.2017 01:00:00 4,1 -0,2 - - 21 11 - - W 1011,2 35 0 0,0
08.12.2017 00:00:00 4,4 0,1 - - 18 10 - - W 1011,5 35 - 0,0
07.12.2017 23:00:00 4,7 0,8 - - 21 11 - - W 1011,3 35 0 0,0
07.12.2017 22:00:00 5,5 1,0 - - 26 14 - - WNW 1011,1 35 0 0,0
07.12.2017 21:00:00 6,0 1,3 - - 24 13 - - W 1010,8 23 0 0,0
07.12.2017 20:00:00 6,7 1,9 - - 24 13 - - W 1010,3 18 0 0,0
07.12.2017 19:00:00 7,2 2,6 - - 16 9 - - W 1010,1 18 0 0,0
07.12.2017 18:00:00 6,9 3,4 - - 13 7 - - W 1009,8 14 0 0,0
07.12.2017 17:00:00 7,1 3,3 - - 21 11 - - WNW 1008,9 15 0 0,0
07.12.2017 16:00:00 6,8 4,7 - - 15 8 - - WNW 1008,3 14 0 0,0
07.12.2017 15:00:00 7,7 5,9 - - 8 4 48 26 W 1006,9 15 12 0,2
07.12.2017 14:00:00 7,8 7,0 - - 29 16 50 27 NNW 1006,6 10 0 0,8
07.12.2017 13:00:00 11,2 10,5 - - 29 16 52 28 SW 1004,5 7 0 0,4
07.12.2017 12:00:00 11,0 10,3 - - 29 16 50 27 SW 1005,3 7 0 1,8
07.12.2017 11:00:00 10,6 9,9 - - 37 20 52 28 SSW 1006,3 6 0 0,0
07.12.2017 10:00:00 10,3 9,5 - - 35 19 54 29 SSW 1007,4 8 0 0,0
07.12.2017 09:00:00 10,2 8,7 7,7 9,7 39 21 52 28 SSW 1008,1 10 0 0,0
07.12.2017 08:00:00 9,8 8,4 - - 37 20 52 28 SSW 1009,2 14 0 0,0
07.12.2017 07:00:00 9,5 8,1 - - 34 18 52 28 SSW 1010,1 8 0 0,0
07.12.2017 06:00:00 9,2 7,6 - - 37 20 55 30 SSW 1011,2 12 0 0,0
07.12.2017 05:00:00 9,0 7,2 - - 37 20 52 28 SW 1012,3 30 0 0,0
07.12.2017 04:00:00 8,8 6,9 - - 37 20 48 26 SSW 1013,7 29 0 0,0
07.12.2017 03:00:00 8,9 6,6 - - 34 18 52 28 SW 1015,0 20 0 0,0
07.12.2017 02:00:00 9,5 6,2 - - 31 17 50 27 SW 1016,1 28 0 0,0
07.12.2017 01:00:00 8,8 5,9 - - 31 17 - - SW 1017,0 19 0 0,0
07.12.2017 00:00:00 8,8 5,7 - - 28 15 - - SSW 1018,6 19 - 0,0
06.12.2017 23:00:00 8,3 5,2 - - 28 15 - - SSW 1019,8 23 0 0,0
06.12.2017 22:00:00 7,6 4,2 - - 29 16 46 25 SSW 1020,8 28 0 0,0
06.12.2017 21:00:00 8,1 4,3 - - 31 17 - - SSW 1021,9 40 0 0,0
06.12.2017 20:00:00 8,8 5,2 - - 28 15 - - SSW 1022,6 30 0 0,0
06.12.2017 19:00:00 9,2 5,7 - - 26 14 - - SW 1023,2 27 0 0,0
06.12.2017 18:00:00 9,0 6,2 - - 22 12 - - SSW 1024,0 25 0 0,0
06.12.2017 17:00:00 8,8 6,7 - - 21 11 - - SSW 1024,8 20 0 0,0
06.12.2017 16:00:00 10,0 6,1 - - 21 11 - - SW 1025,5 40 0 0,0
06.12.2017 15:00:00 10,2 5,8 - - 21 11 - - SW 1026,1 45 0 0,0
06.12.2017 14:00:00 9,5 6,6 - - 18 10 - - SSW 1026,8 30 0 0,0
06.12.2017 13:00:00 9,5 6,0 - - 18 10 - - SW 1027,6 35 0 0,0
06.12.2017 12:00:00 9,1 5,3 - - 18 10 - - SSW 1028,3 50 0 0,0
06.12.2017 11:00:00 9,5 4,8 - - 18 10 - - SW 1029,2 45 0 0,0
06.12.2017 10:00:00 8,8 4,7 - - 18 10 - - SW 1029,7 50 0 0,0
06.12.2017 09:00:00 8,7 4,1 7,5 9,7 13 7 - - SW 1030,0 50 0 0,0
06.12.2017 08:00:00 8,3 4,0 - - 11 6 - - SW 1030,4 50 0 0,0
06.12.2017 07:00:00 7,7 3,8 - - 13 7 - - SW 1030,4 50 0 0,0
06.12.2017 06:00:00 7,2 4,0 - - 18 10 - - SSW 1030,9 50 0 0,0
06.12.2017 05:00:00 7,2 3,4 - - 15 8 - - SW 1031,2 50 0 0,0
06.12.2017 04:00:00 8,5 3,7 - - 11 6 - - WSW 1031,5 50 0 0,0
06.12.2017 03:00:00 8,3 3,9 - - 15 8 - - WSW 1032,0 50 0 0,0
06.12.2017 02:00:00 8,3 3,6 - - 15 8 - - WSW 1032,3 50 0 0,0
06.12.2017 01:00:00 8,2 3,9 - - 15 8 - - WSW 1032,5 50 0 0,0
06.12.2017 00:00:00 8,6 3,7 - - 18 10 - - W 1033,2 50 - 0,0
05.12.2017 23:00:00 8,2 4,9 - - 11 6 - - WSW 1033,3 50 0 0,0
05.12.2017 22:00:00 8,0 4,9 - - 11 6 - - WSW 1033,7 50 0 0,0
05.12.2017 21:00:00 - - - - 13 7 - - WSW - - 0 0,0
05.12.2017 20:00:00 - - - - 13 7 - - SW - - 0 0,0
05.12.2017 19:00:00 - - - - 11 6 - - SW - - 0 0,0
05.12.2017 18:00:00 - - - - 5 3 - - WSW - - 0 0,0
05.12.2017 17:00:00 - - - - 8 4 - - WSW - - 0 0,0
05.12.2017 16:00:00 - - - - 8 4 - - W - - 0 0,0
05.12.2017 15:00:00 - - - - 13 7 - - WNW - - 0 0,0
05.12.2017 14:00:00 - - - - 16 9 - - W - - 0 0,0
05.12.2017 13:00:00 - - - - 15 8 - - WSW - - 0 0,0
05.12.2017 12:00:00 - - - - 9 5 - - WSW - - 0 0,0
05.12.2017 11:00:00 8,0 5,0 - - 11 6 - - WSW 1036,0 45 0 0,0
05.12.2017 10:00:00 7,7 4,9 - - 11 6 - - WSW 1036,0 35 0 0,0
05.12.2017 09:00:00 7,4 4,9 7,2 9,7 9 5 - - W 1036,0 50 0 0,0
05.12.2017 08:00:00 7,3 4,7 - - 9 5 - - WSW 1035,8 45 0 0,0
05.12.2017 07:00:00 8,0 4,0 - - 11 6 - - W 1035,6 50 0 0,0
05.12.2017 06:00:00 7,8 4,6 - - 9 5 - - W 1035,3 50 0 0,0

tt = Température de l'air
td = dewpoint
tt -20cm = Température de l'air -20cm
tt -100cm = Température de l'air -100cm
ff = Vitesse du vent
fx = gusts
dd = Direction du vent
ppp = reduced air pressure
vv = visibility
sd = Ensoleillement
rr = Quantités de précipitations

stations d'obs. à proximité